Other Public Products
Issued by NWS Grand Forks, ND

Home | Current Version | Previous Version | Text Only | Print | Product List | Glossary On
Versions: 1 2 3 4 5 6 7 8 9 10 11 12 13 14 15 16 17 18 19 20 21 22 23 24 25 26 27 28 29 30 31 32 33 34 35 36 37 38 39 40 41 42 43 44 45 46 47 48 49 50
000
FPUS83 KFGF 310931
OPUFGF
PRAIRIE TO PINES WEATHER ROUNDUP
NATIONAL WEATHER SERVICE EASTERN NORTH DAKOTA/GRAND FORKS ND
400 AM CDT THU JUL 31 2014

 **SATELLITE DATA USED TO AUGMENT SKY COVER AT AUTOMATED STATIONS**
 *****  WEATHER ACROSS EASTERN NORTH DAKOTA  *****

CITY           SKY/WX    TMP DP  RH WIND       PRES   REMARKS
GRAND FORKS    PTCLDY    58  56  93 CALM      30.02S
GRAND FORKS AF PTCLDY    59  58  99 SW5       30.04S
GRAND CITY NWS   N/A     59 N/A N/A MISG        N/A
BUXTON           N/A     59  59  97 W5          N/A
DEVILS LAKE    CLEAR     61  55  82 CALM      30.06S
FARGO          CLEAR     57  54  89 CALM      30.04S
WAHPETON ARPT  MOSUNNY   55  50  82 W5        30.05S
$$

 *****  WEATHER ACROSS CENTRAL AND WESTERN NORTH DAKOTA  *****

CITY           SKY/WX    TMP DP  RH WIND       PRES   REMARKS
JAMESTOWN      CLEAR     59  54  83 CALM      30.08S
BISMARCK       PTCLDY    61  57  87 CALM      30.12R
MINOT          PTCLDY    57  51  80 CALM      30.10S
MINOT AFB      PTCLDY    55  55  99 W8        30.09F
GARRISON         N/A     57  55  93 NW6       30.11F
WILLISTON      LGT RAIN  64  59  83 S10       30.08F
DICKINSON      MOCLDY    56  52  86 CALM      30.15S
HETTINGER      CLEAR     51  48  89 NW3       30.14S
$$

 *****  OTHER OBSERVATIONS NORTHEAST NORTH DAKOTA  *****

CITY           SKY/WX    TMP DP  RH WIND       PRES   REMARKS
WALHALLA       NOT AVBL
LANGDON        FAIR      52  50  93 CALM      30.07S FOG
CAVALIER       FAIR      59  57  94 NW6       30.03S
GRAFTON        FAIR      63  59  88 NW7       30.02F
CANDO          FAIR      55  55 100 NW5       30.09R
FORT TOTTEN    NOT AVBL
ROLLA          FAIR      57  57 100 W5        30.10S
RUGBY          FAIR      55  55 100 CALM      30.09S
 ***** THE ABOVE OBSERVATIONS ARE NON NWS ARE NOT QUALITY
        CONTROLLED AND MAY MIS-REPORT RAIN FOR SNOW...
$$

 *****  OTHER OBSERVATIONS SOUTHEAST NORTH DAKOTA *****

CITY           SKY/WX    TMP DP  RH WIND       PRES   REMARKS
COOPERSTOWN    NOT AVBL
VALLEY CITY    FAIR      57  57 100 CALM      30.08R
OAKES          NOT AVBL
GWINNER        SUNNY     57  57 100 W7        30.08R
BUFFALO          N/A     56  53  89 NW3         N/A
WYNDMERE       NOT AVBL
 ***** THE ABOVE OBSERVATIONS ARE NON NWS ARE NOT QUALITY
       CONTROLLED AND MAY MIS-REPORT RAIN FOR SNOW...
$$

  *****  WEATHER ACROSS NORTHERN MINNESOTA  *****

CITY           SKY/WX    TMP DP  RH WIND       PRES   REMARKS
FLAG ISLAND    CLEAR     66  63  88 NW3       29.99S
WARROAD        CLEAR     57  54  88 CALM      30.01S
ROSEAU         CLEAR     61  55  82 W5        30.01S
HALLOCK        CLEAR     61  57  88 NW5       30.02S
THF RVR FALLS  CLEAR     59  55  88 CALM      30.04R
HALSTAD          N/A     55  54  94 W2          N/A
FOSSTON        PTCLDY    52  52 100 CALM      30.05S
BAUDETTE       CLEAR     60  58  92 CALM      30.01S
WASKISH        CLEAR     64  59  82 NW8       30.01S
CROOKSTON      PTCLDY    57  55  94 CALM      30.04S
$$
  *****  WEATHER ACROSS CENTRAL AND WEST MINNESOTA  *****

CITY           SKY/WX    TMP DP  RH WIND       PRES   REMARKS
BEMIDJI        CLEAR     56  53  88 W3        30.03S
PARK RAPIDS    CLEAR     54  52  93 W3        30.04F
WADENA         CLEAR     54  52  94 CALM      30.04F FOG
DETROIT LAKES  PTCLDY    59  55  88 CALM      30.06S
MOORHEAD       CLEAR     57  57 100 CALM      30.05S
FERGUS FALLS   CLEAR     57  55  94 CALM      30.06R
ELBOW LAKE     PTSUNNY   58  55  89 CALM      30.05S
MORRIS MN      CLEAR     55  54  94 W3        30.05S
STAPLES        CLEAR     54  52  94 CALM      30.04F
WHEATON        PTCLDY    59  55  88 CALM      30.07S
$$
  *****  WEATHER ELSEWHERE ACROSS MINNESOTA  *****

CITY           SKY/WX    TMP DP  RH WIND       PRES   REMARKS
DULUTH         PTCLDY    60  55  83 NW7       29.99S
INTRNTL FALLS  CLEAR     49  48  97 CALM      29.98F FOG
ELY            PTCLDY    48  46  93 CALM      29.99S
CLOQUET        CLEAR     57  54  88 NW5       29.99S
BRAINERD       CLEAR     54  53  97 S5        30.04S
HIBBING        FOG       54  52  93 CALM      30.00S VSB 3/4
ALEXANDRIA     PTCLDY    60  57  89 CALM      30.07S
SAINT CLOUD    CLEAR     57  54  89 CALM      30.04S
MINNEAPOLIS    CLEAR     65  58  78 SW3       30.03S
$$

  *****  WEATHER ACROSS SOUTH DAKOTA  *****

CITY           SKY/WX    TMP DP  RH WIND       PRES   REMARKS
SIOUX FALLS    CLEAR     55  53  93 CALM      30.08F
BROOKINGS      NOT AVBL
WATERTOWN      CLEAR     57  53  86 CALM      30.09S
HURON          PTCLDY    59  55  87 CALM      30.07S
SISSETON         N/A     56  54  93 W3        30.05S
ABERDEEN       MOCLDY    60  57  89 NE3       30.08S
MITCHELL       LGT RAIN  65  62  90 S6        30.08S
PIERRE         CLEAR     60  55  83 E7        30.05S
MOBRIDGE       PTCLDY    61  54  77 E8        30.07S
RAPID CITY     CLEAR     60  49  66 NW9       30.16S
$$

  *****  SOME WEATHER IN NEARBY STATES *****

CITY           SKY/WX    TMP DP  RH WIND       PRES   REMARKS
GLASGOW MT     CLEAR     68  50  52 E15G26    30.07R
GREAT FALLS MT CLEAR     61  44  53 S9        30.12F
CHEYENNE WY    MOCLDY    53  50  89 W7        30.32S
SCOTTSBLUFF NE CLOUDY    60  58  92 CALM      30.21S
OMAHA NE       MOCLDY    60  57  89 CALM      30.11S
DES MOINES IA  CLEAR     61  57  87 NW3       30.08S
DAVENPORT IA   CLEAR     58  56  93 W3        30.06S
CHICAGO IL     CLEAR     62  55  77 SW5       30.01F
EAU CLAIRE WI  CLEAR     59  57  93 SW5       30.00S
LA CROSSE WI   CLEAR     65  60  84 CALM      30.01S
$$

  *****  SOME NATIONAL WEATHER *****

CITY           SKY/WX    TMP DP  RH WIND       PRES   REMARKS
LA GUARDIA NY  PTCLDY    70  55  59 SW3       30.05S
RALEIGH NC     MOCLDY    67  63  87 CALM      30.09S
ATLANTA GA     MOCLDY    72  60  66 NE8       30.04S
NEW ORLEANS LA PTCLDY    74  63  68 SE3       29.98F
OKLAHOMA CITY  DRIZZLE   68  66  94 NE9       30.04F
ALBUQUERQUE NM LGT RAIN  63  59  87 SE16G26   30.25F
SALT LAKE CITY PTCLDY    65  55  70 S6        30.17S
LOS ANGELES CA PTCLDY    68  64  87 SW5       29.93S
BOISE ID       CLEAR     76  47  35 SE12      30.10S
SEATTLE WA     CLEAR     67  45  45 NE10      30.11F
$$

*** WEATHER ACROSS MANITOBA...SASKATCHEWAN AND ONTARIO ***
                ***ONTARIO***

CITY           SKY/WX    TMP DP  RH WIND       PRES   REMARKS
GERALDTON      MOCLDY    54  50  87 W5        29.88F
THUNDER BAY    PTCLDY    50  48  93 VRB2      29.93S
SIOUX LOOKOUT  CLEAR     46  46 100 NE2       29.99R
TORONTO        MOCLDY    57  50  77 N6        29.97F
BIG TROUT LK   CLOUDY    54  48  82 N8        29.97S
PICKLE LAKE    NOT AVBL
DRYDEN         CLEAR     55  55 100 NE2       29.99S FOG
KENORA         MOCLDY    63  52  67 N6        30.02S
$$
                *** MANITOBA***

CITY           SKY/WX    TMP DP  RH WIND       PRES   REMARKS
BRANDON        CLEAR     57  55  94 W6        30.07F
DAUPHIN        CLEAR     57  54  88 W8        30.06S
ISLAND LAKE    CLEAR     57  52  82 NE3       30.06S
PILOT MOUND      N/A     55  54  94 NW3         N/A
THE PAS        CLEAR     64  61  88 CALM      30.03S
THOMPSON       PTCLDY    61  54  77 E6        30.07R
WINNIPEG       MOCLDY    55  54  94 NW5       30.03R
LYNN LAKE      CLEAR     61  54  77 E2        30.06S
CHURCHILL      PTCLDY    50  46  87 S7        30.11F
GILLAM         CLOUDY    46  46 100 E3        30.11R
$$
                ***SASKATCHEWAN***

CITY           SKY/WX    TMP DP  RH WIND       PRES   REMARKS
ESTEVAN        MOCLDY   N/A N/A N/A SE7         N/A  THUNDER
KINDERSLEY     PTCLDY    61  61 100 NE9       30.00S
LLOYDMINSTER   CLEAR     61  59  94 E6        30.05S
PRINCE ALBERT  FOG       55  55 100 NE3       30.06F VSB 3/4
REGINA         PTCLDY    63  57  82 E12       30.06F
YORKTON        CLEAR     59  55  88 VRB2      30.09S


USA.gov is the U.S. government's official web portal to all federal, state and local government web resources and services.